Kosmos-2140

operational
NORAD ID: 21217 Int'l Des: 1991-025 Owner: UNKSR Country: SU Constellation: GLONASS
MEOCIRCULAR

Kosmos-2140について

説明を読み込み中...

リアルタイム位置

3D地球を読み込み中...

次回通過

高度履歴

Altitude vs Time

uPlot chart will show altitude changes over time

軌道要素

1 21217U 91025B 26062.34289457 -.00000032 00000-0 00000+0 0 9993
2 21217 64.4201 308.0107 0025768 218.4688 323.5982 2.13101114271686
Epoch: Mar 3, 2026 • Age: 28 hours

現在のステータス

高度 19188.9 km
速度 3.95 km/s
衛星直下点 62.87°N, 161.17°E
打ち上げ日 Apr 4, 1991
運用期間 34.9 years
タイプ other

技術仕様

分類 Payload
質量 1300.00 kg
乾燥質量 1200.00 kg
総質量 1300.00 kg
長さ 4.00 m
直径 1.50 m
スパン 7.80 m
形状 Cyl + Ant + 2 Pan
製造者 POL
バスタイプ Uragan
フェーズステータス In Orbit
所有者/国 UNKSR/SU

大規模コンステレーション

Loading constellations...